This is the latest recevied weather packets stored in our database for station/object K6GMW. If no packets are shown the sender has not sent any weather packets the latest 10 day(s).
| Time | Temp. | Humidity | Pressure | Rain* | Wind** | Luminosity | Snow |
|---|---|---|---|---|---|---|---|
| 1788475874 | 35° C | 46% | 1012.9 hPa | 0 mm | - | 203 W/m² | - |
| 1788475570 | 35° C | 45% | 1012.8 hPa | 0 mm | - | 221 W/m² | - |
| 1788475267 | 35° C | 45% | 1012.9 hPa | 0 mm | - | 236 W/m² | - |
| 1788474988 | 35.56° C | 46% | 1012.9 hPa | 0 mm | - | 261 W/m² | - |
| 1788474665 | 35° C | 46% | 1013 hPa | 0 mm | - | 285 W/m² | - |
| 1788474360 | 34.44° C | 47% | 1012.9 hPa | 0 mm | - | 307 W/m² | - |
| 1788474059 | 35.56° C | 45% | 1012.9 hPa | 0 mm | - | 74 W/m² | - |
| 1788473755 | 35.56° C | 46% | 1012.9 hPa | 0 mm | - | 352 W/m² | - |
| 1788473452 | 35° C | 46% | 1013.1 hPa | 0 mm | - | 381 W/m² | - |
| 1788473151 | 35° C | 46% | 1013.2 hPa | 0 mm | - | 398 W/m² | - |
| 1788472851 | 35° C | 45% | 1013 hPa | 0 mm | - | 408 W/m² | - |
| 1788472550 | 35° C | 47% | 1013.3 hPa | 0 mm | - | 443 W/m² | - |
| 1788472250 | 34.44° C | 46% | 1013.2 hPa | 0 mm | - | 104 W/m² | - |
| 1788471949 | 35.56° C | 44% | 1013.3 hPa | 0 mm | - | 349 W/m² | - |
| 1788471644 | 35° C | 46% | 1013.2 hPa | 0 mm | - | 512 W/m² | - |
| 1788471340 | 34.44° C | 48% | 1013.3 hPa | 0 mm | - | 521 W/m² | - |
| 1788471036 | 34.44° C | 48% | 1013.2 hPa | 0 mm | - | 189 W/m² | - |
| 1788470732 | 34.44° C | 47% | 1013.4 hPa | 0 mm | - | 121 W/m² | - |
| 1788470427 | 35.56° C | 47% | 1013.3 hPa | 0 mm | - | 114 W/m² | - |
| 1788470121 | 35° C | 49% | 1013.3 hPa | 0 mm | - | 607 W/m² | - |
| 1788469819 | 34.44° C | 48% | 1013.5 hPa | 0 mm | - | 170 W/m² | - |
| 1788469519 | 35° C | 48% | 1013.6 hPa | 0 mm | - | 129 W/m² | - |
| 1788469215 | 35° C | 48% | 1013.2 hPa | 0 mm | - | 283 W/m² | - |
| 1788468914 | 35.56° C | 47% | 1013.7 hPa | 0 mm | - | 195 W/m² | - |
| 1788468609 | 35.56° C | 48% | 1013.6 hPa | 0 mm | - | 773 W/m² | - |
* Rain latest hour (hover to see other rain measurements)
** Current wind speed in m/s (hover to see current wind gust speed)